Free Severe Weather Alerts by Email and Text Message   

 
Follow iAlert.com on twitter @ialertcom
Search For Active Alerts in Your Area  
  Hi Guest:  [ Sign-up / Services ] [ Login ]

Current weather by "City, St" or "zip code"  

 

Advertise Here

Hazardous Weather Conditions

Beach Hazards Statement issued April 25 at 5:16PM PDT until April 28 at 8:00PM PDT

Current Conditions: LOS ANGELES, CALIFORNIA

Fair


74.0 F

Last Updated on Apr 27 2017, 10:51 pm PDT
Humidity: 20%
Wind Speed: N 19.6 G 34.5 mph
Barometer 29.76 in
Dewpoint: 30.0 F
Visibility: 10.00 mi
Precip: --
Heat Index: NA
Wind Chill: NA
Current conditions at:

Santa Monica, Santa Monica Municipal Airport, CA (KSMO)

Lat: 34.01 Lon: -118.45

Local Radar Image active severe weather and emergency alerts image image weather storm and storm spotter reports image weather observation monitoring service image
Local
Radar
Active
Alerts
Storm Reports Weather
Monitoring

Weather Alert Notification Services


ialert severe weather and emergency alerts by text message and email ialert daily weather forecast by email and text message service ialert real-time weather-observation monitoring and alert notification service ialert storm report monitoring alert notification

Observation History for LOS ANGELES, CALIFORNIA


Time Wind
(mph)
Vis
(mi)
Weather Precip (in) Temperature (F) Relative
Humidity
Wind
Chill
(°F)
Heat
Index
(°F)
Pressure
Air Dwpt altimeter
(in)
sea level
(mb)
10:51 pm PDT N 19.6 G 34.5 10.00 Fair -- 74.0 30.0 20% NA NA 29.76 1007.4
9:51 pm PDT N 19.6 G 31.1 10.00 Fair -- 74.0 39.0 28% NA NA 29.76 1007.4
8:51 pm PDT N 13.8 G 27.6 10.00 Fair -- 74.0 41.0 31% NA NA 29.75 1007.2
7:51 pm PDT N 15.0 G 24.2 10.00 Fair -- 76.0 37.0 25% NA NA 29.72 1006.2
6:51 pm PDT N 10.4 G 19.6 10.00 Fair -- 79.0 37.9 23% NA NA 29.73 1006.5
5:51 pm PDT 6.9 10.00 Fair -- 73.0 52.0 48% NA NA 29.73 1006.8
4:51 pm PDT N 9.2 G 19.6 10.00 Fair -- 83.0 39.0 21% NA 81 29.74 1006.9
3:51 pm PDT SW 6.9 10.00 Fair -- 70.0 54.0 57% NA NA 29.74 1007.1
2:51 pm PDT SW 10.4 10.00 Fair -- 70.0 54.0 57% NA NA 29.76 1007.5
1:51 pm PDT SW 13.8 G 18.4 10.00 Fair -- 73.0 54.0 51% NA NA 29.77 1008.0
12:51 pm PDT SW 10.4 10.00 Fair -- 74.0 51.1 45% NA NA 29.78 1008.3
11:51 am PDT S 12.7 10.00 Fair -- 68.0 55.0 63% NA NA 29.82 1009.5
10:51 am PDT S 8.1 10.00 Fair -- 66.0 54.0 65% NA NA 29.82 1009.6
9:51 am PDT S 9.2 10.00 Fair -- 63.0 55.9 78% 62 NA 29.82 1009.6
8:51 am PDT SW 10.4 8.00 Fair -- 63.0 57.0 81% 62 NA 29.82 1009.6
7:51 am PDT SW 4.6 10.00 Fair -- 60.0 55.9 86% 60 NA 29.82 1009.7
6:51 am PDT N 0.0 10.00 Fair -- 58.0 55.0 90% NA NA 29.82 1009.7
5:51 am PDT N 0.0 10.00 Fair -- 56.0 54.0 93% NA NA 29.81 1009.5
4:51 am PDT S 4.6 10.00 Fair -- 58.0 55.0 90% 58 NA 29.81 1009.3
3:51 am PDT SE 4.6 10.00 Fair -- 57.0 55.0 93% 57 NA 29.81 1009.5
2:51 am PDT 4.6 10.00 Fair -- 57.0 55.0 93% 57 NA 29.82 1009.7
1:51 am PDT SE 4.6 10.00 Fair -- 58.0 55.0 90% 58 NA 29.82 1009.6
12:51 am PDT E 4.6 10.00 Fair -- 59.0 55.0 87% 59 NA 29.83 1010.0
11:51 pm PDT E 4.6 10.00 Fair -- 60.0 55.0 84% 60 NA 29.84 1010.2

Regional Weather Observation:


Los Angeles / USC Campus Downtown, CA (KCQT)

Fair
75.0 F

Burbank - Bob Hope Airport, CA (KBUR)

Fair
70.0 F

Los Angeles, Whiteman Airport, CA (KWHP)

Clear
73.0 F

El Monte, CA (KEMT)

Fair
79.0 F

Los Angeles, Los Angeles International Airport, CA (KLAX)

Partly Cloudy
75.0 F

Hawthorne, Hawthorne Municipal Airport, CA (KHHR)

Fair
75.0 F

Advertise Here


Advertise Here